Regional Weather Roundup
Issued by NWS

Home | Current Version | Previous Version | Graphics & Text | Print | Product List | Glossary On
Versions: 1 2 3 4 5 6 7 8 9 10 11 12 13 14 15 16 17 18 19 20 21 22 23 24 25 26 27 28 29 30 31 32 33 34 35 36 37 38 39 40 41 42 43 44 45 46 47 48 49 50
000
ASUS44 KMEG 022210
RWRTN
TENNESSEE HOURLY STATE WEATHER ROUNDUP
NATIONAL WEATHER SERVICE MEMPHIS TN
400 PM CST FRI DEC 02 2016

TNZ002-004-019-021-049-052-054-088>092-022300-
WEST TENNESSEE

CITY           SKY/WX    TMP DP  RH WIND       PRES   REMARKS
MEMPHIS INTL   MOCLDY    58  31  35 NW6       30.26R
NWS MEMPHIS      N/A     61 N/A N/A MISG        N/A
JACKSON        CLEAR     57  36  45 N5        30.27R
DYERSBURG      CLEAR    N/A N/A N/A CALM      30.27R
UNION CITY     CLEAR     52  32  46 CALM      30.27S
PARIS          CLEAR     52  30  43 CALM      30.28R
HUNTINGDON     CLEAR     55  32  41 CALM      30.26S
LEXINGTON      CLEAR     57  27  30 W5        30.26R
$$

TNZ008-025-027-028-033-062-065-066-022300-
NORTH MIDDLE TENNESSEE

CITY           SKY/WX    TMP DP  RH WIND       PRES   REMARKS
NASHVILLE      PTCLDY    57  27  31 N6        30.26R
PORTLAND       CLEAR     50  30  46 W3        30.26R
CLARKSVILLE    CLEAR     50  30  46 NW5       30.27R
SMYRNA         CLEAR     55  31  39 N6        30.27R
CROSSVILLE     CLEAR     50  26  39 W9        30.23R
$$

TNZ061-075-076-078-094-096-097-022300-
SOUTH MIDDLE TENNESSEE

CITY           SKY/WX    TMP DP  RH WIND       PRES   REMARKS
FAYETTEVILLE   CLEAR     57  30  35 CALM      30.25R
TULLAHOMA      CLEAR     54  25  32 NW3       30.26R
WINCHESTER     CLEAR     55  28  35 NW5       30.25R
MCMINNVILLE    CLEAR     55  28  35 VRB5      30.24R
COLUMBIA       CLEAR     57  28  33 N3        30.24R
SHELBYVILLE    CLEAR     59  30  33 NW3       30.26R
$$

TNZ017-018-042-046-047-022300-
NORTHEAST TENNESSEE

CITY           SKY/WX    TMP DP  RH WIND       PRES   REMARKS
TRI CITIES     PTCLDY    49  27  42 SW10      30.17S
ELIZABETHTON   DRIZZLE   48  27  43 W7        30.17R
$$

TNZ012-013-036-069-073-074-022300-
CENTRAL EAST TENNESSEE

CITY           SKY/WX    TMP DP  RH WIND       PRES   REMARKS
KNOXVILLE      PTCLDY    52  30  43 S6        30.19F
OAK RIDGE      CLEAR     55  28  35 CALM      30.21S
DOWNTOWN KNOXV CLEAR     54  30  40 CALM      30.20F
GATLINBURG     CLEAR     52  27  37 W5        30.20F
MORRISTOWN     CLEAR     52  28  40 SW7       30.18F
JACKSBORO      CLEAR     54  27  35 CALM      30.23S
$$

TNZ083-085-099-022300-
SOUTHEAST TENNESSEE

CITY           SKY/WX    TMP DP  RH WIND       PRES   REMARKS
CHATTANOOGA    PTCLDY    58  28  32 MISG      30.23R
$$

SKY/WX REPORTED AS FAIR MEANS FEW OR NO CLOUDS BELOW
12 THOUSAND FEET.





USA.gov is the U.S. government's official web portal to all federal, state and local government web resources and services.